Location: Caltech
(34.1382°N, 118.1253°W)
Time: 06:32:19
(UTC-08:00)

Cosmos 1758 Rocket - Visible Passes

Search period start: 05 March 2015 00:00
Search period end: 15 March 2015 01:00
Orbit: 603 x 638 km, 82.5° (Epoch: 04 March)

Date Brightness Start Highest point End Pass type
(mag) Time Alt. Az. Time Alt. Az. Time Alt. Az.
05 Mar 5.6 18:59:48 10° NNW 19:03:37 30° W 19:07:21 10° SSW visible
06 Mar 7.1 05:51:33 10° ESE 05:53:32 13° E 05:55:46 10° ENE visible
06 Mar 6.8 19:18:36 10° NW 19:21:13 15° W 19:23:39 10° WSW visible
08 Mar 4.4 19:14:50 10° NNW 19:19:05 57° W 19:23:17 10° S visible
09 Mar 6.0 19:33:01 10° NNW 19:36:43 27° W 19:40:19 10° SSW visible
10 Mar 7.1 06:24:18 10° ESE 06:26:38 15° E 06:29:10 10° NE visible
10 Mar 7.1 19:52:00 10° NW 19:54:18 14° W 19:56:23 10° WSW visible
11 Mar 6.1 06:40:28 10° SSE 06:44:14 28° E 06:48:03 10° NNE visible
14 Mar 6.9 05:57:07 10° SE 05:59:43 16° E 06:02:31 10° NE visible
14 Mar 7.3 19:25:26 10° WNW 19:27:22 12° W 19:29:04 10° WSW visible
